FW9086 Weather Reports


time (UTC)temp
C
wind
direction
speed
KPH
gust
KPH
rain 1hr
cm
rain 24hr
cm
rain mn
cm
humidity
%
barometer
mb
20260503213505 16 262 6.4 8.0 0.00 0.00 0.00 51 1009.7
20260503213001 16 250 9.7 11.3 0.00 0.00 0.00 52 1009.6
20260503212459 16 245 4.8 4.8 0.00 0.00 0.00 50 1009.3
20260503211956 16 258 8.0 11.3 0.00 0.00 0.00 53 1009.7
20260503211453 17 249 4.8 9.7 0.00 0.00 0.00 53 1009.7
20260503210948 17 228 3.2 4.8 0.00 0.00 0.00 54 1009.9
20260503210445 16 259 4.8 8.0 0.00 0.00 0.00 58 1010.2
20260503205940 15 225 4.8 4.8 0.00 0.00 0.00 55 1010.2
20260503205437 15 251 0.0 0.0 0.00 0.00 0.00 53 1010.3
20260503204933 15 270 4.8 4.8 0.00 0.00 0.00 51 1010.7
20260503204430 15 251 8.0 9.7 0.00 0.00 0.00 53 1010.4
20260503203927 16 269 3.2 9.7 0.00 0.00 0.00 53 1010.6
20260503203425 16 269 8.0 9.7 0.00 0.00 0.00 55 1010.6
20260503202921 17 251 6.4 8.0 0.00 0.00 0.00 51 1010.8
20260503202420 16 208 3.2 3.2 0.00 0.00 0.00 53 1011.0
20260503201918 15 229 0.0 0.0 0.00 0.00 0.00 54 1011.1
20260503201415 16 236 4.8 4.8 0.00 0.00 0.00 53 1011.6
20260503200912 16 245 6.4 8.0 0.00 0.00 0.00 55 1011.4
20260503200408 16 251 9.7 9.7 0.00 0.00 0.00 49 1011.5
20260503195905 16 243 4.8 4.8 0.00 0.00 0.00 54 1011.5
20260503195402 16 247 8.0 9.7 0.00 0.00 0.00 54 1011.7
20260503194859 16 236 0.0 0.0 0.00 0.00 0.00 55 1012.1
20260503194355 16 203 3.2 3.2 0.00 0.00 0.00 53 1012.2
20260503193851 16 273 8.0 11.3 0.00 0.00 0.00 53 1012.3
20260503193347 15 217 4.8 4.8 0.00 0.00 0.00 52 1012.6
20260503192843 15 205 1.6 3.2 0.00 0.00 0.00 58 1012.8
20260503192339 15 206 3.2 3.2 0.00 0.00 0.00 53 1013.0
20260503191835 15 209 8.0 11.3 0.00 0.00 0.00 53 1012.9
20260503191332 16 257 6.4 8.0 0.00 0.00 0.00 52 1012.8
20260503190829 15 253 8.0 9.7 0.00 0.00 0.00 52 1012.4
20260503190326 15 254 4.8 8.0 0.00 0.00 0.00 55 1012.8
20260503185823 16 285 8.0 12.9 0.00 0.00 0.00 52 1012.6
20260503185319 16 244 8.0 8.0 0.00 0.00 0.00 51 1012.6
20260503184814 16 274 8.0 11.3 0.00 0.00 0.00 54 1012.8
20260503184310 16 251 4.8 4.8 0.00 0.00 0.00 49 1012.5
20260503183806 17 185 0.0 1.6 0.00 0.00 0.00 50 1012.8
20260503183304 17 232 4.8 4.8 0.00 0.00 0.00 49 1012.6
20260503182801 16 241 8.0 9.7 0.00 0.00 0.00 53 1013.0
20260503182300 16 328 1.6 1.6 0.00 0.00 0.00 56 1013.1
20260503181756 15 239 4.8 4.8 0.00 0.00 0.00 53 1013.5
20260503181253 16 234 1.6 3.2 0.00 0.00 0.00 55 1013.4
20260503180749 15 265 9.7 12.9 0.00 0.00 0.00 52 1013.7
20260503180248 15 188 0.0 0.0 0.00 0.00 0.00 52 1013.8
20260503175744 15 235 6.4 8.0 0.00 0.00 0.00 52 1013.8
20260503175242 15 249 8.0 9.7 0.00 0.00 0.00 54 1013.9
20260503174738 15 259 3.2 3.2 0.00 0.00 0.00 55 1014.2
20260503174236 15 246 6.4 8.0 0.00 0.00 0.00 54 1014.4
20260503173736 15 232 8.0 9.7 0.00 0.00 0.00 57 1014.4
20260503173232 15 216 4.8 4.8 0.00 0.00 0.00 53 1014.4
20260503172729 15 235 0.0 1.6 0.00 0.00 0.00 56 1014.5
20260503172227 14 232 1.6 3.2 0.00 0.00 0.00 55 1014.7
20260503171723 13 244 6.4 8.0 0.00 0.00 0.00 52 1014.9
20260503171220 15 260 8.0 11.3 0.00 0.00 0.00 52 1014.8
20260503170717 15 186 4.8 8.0 0.00 0.00 0.00 51 1014.9
20260503170214 14 252 8.0 9.7 0.00 0.00 0.00 53 1015.0
20260503160136 15 252 6.4 8.0 0.00 0.00 0.00 54 1015.6
20260503150606 14 243 0.0 0.0 0.00 0.00 0.00 59 1016.1
20260503130955 8 211 0.0 0.0 0.00 0.00 0.00 64 1016.4
20260503130453 8 247 4.8 8.0 0.00 0.00 0.00 67 1016.3
20260503110349 4 236 0.0 0.0 0.00 0.00 0.00 76 1015.9
20260503090241 2 169 0.0 0.0 0.00 0.00 0.00 94 1015.6
20260503081208 2 151 0.0 0.0 0.00 0.00 0.00 94 1015.6
20260503080704 2 151 0.0 0.0 0.00 0.00 0.00 94 1015.5
20260503080201 2 151 0.0 0.0 0.00 0.00 0.00 94 1015.8
20260503072638 2 151 0.0 0.0 0.00 0.00 0.00 95 1015.6
20260503072135 2 151 0.0 0.0 0.00 0.00 0.00 94 1015.5
20260503071631 2 151 0.0 0.0 0.00 0.00 0.00 94 1015.6
20260503071128 2 151 0.0 0.0 0.00 0.00 0.00 94 1015.8
20260503070625 2 151 0.0 0.0 0.00 0.00 0.00 94 1015.5
20260503070123 2 151 0.0 0.0 0.00 0.00 0.00 94 1015.6
20260503055044 2 153 0.0 0.0 0.00 0.00 0.00 93 1016.2
20260503054539 2 153 0.0 0.0 0.00 0.00 0.00 93 1015.9
20260503054037 2 153 0.0 0.0 0.00 0.00 0.00 93 1016.3
20260503053535 2 153 0.0 0.0 0.00 0.00 0.00 93 1016.1
20260503053032 2 153 0.0 0.0 0.00 0.00 0.00 93 1016.2
20260503052529 2 153 0.0 0.0 0.00 0.00 0.00 93 1016.3
20260503052025 2 154 0.0 0.0 0.00 0.00 0.00 93 1016.2
20260503051521 2 165 0.0 0.0 0.00 0.00 0.00 92 1016.5
20260503051019 2 165 0.0 0.0 0.00 0.00 0.00 92 1016.5
20260503050514 2 165 0.0 0.0 0.00 0.00 0.00 92 1016.1
20260503050012 3 166 0.0 0.0 0.00 0.00 0.00 93 1016.4
20260503045509 3 166 0.0 0.0 0.00 0.00 0.00 93 1016.4
20260503045006 3 166 0.0 0.0 0.00 0.00 0.00 93 1016.3
20260503044503 3 166 0.0 0.0 0.00 0.00 0.00 93 1016.3
20260503044000 3 166 0.0 0.0 0.00 0.00 0.00 92 1016.4
20260503043456 3 166 0.0 0.0 0.00 0.00 0.00 92 1016.5
20260503042953 3 166 0.0 0.0 0.00 0.00 0.00 92 1016.3
20260503042450 3 167 0.0 0.0 0.00 0.00 0.00 92 1016.4
20260503041946 3 168 0.0 0.0 0.00 0.00 0.00 92 1016.4
20260503041443 3 167 0.0 0.0 0.00 0.00 0.00 92 1016.3
20260503040941 3 167 0.0 0.0 0.00 0.00 0.00 91 1016.4
20260503040438 3 169 0.0 0.0 0.00 0.00 0.00 90 1016.4
20260503035935 3 178 0.0 0.0 0.00 0.00 0.00 90 1016.4
20260503035432 3 173 0.0 0.0 0.00 0.00 0.00 89 1016.3
20260503034930 3 173 0.0 0.0 0.00 0.00 0.00 88 1016.3
20260503034427 3 172 0.0 0.0 0.00 0.00 0.00 88 1016.3
20260503033924 3 173 0.0 0.0 0.00 0.00 0.00 87 1016.6
20260503033421 3 173 0.0 0.0 0.00 0.00 0.00 88 1016.2
20260503032919 3 173 0.0 0.0 0.00 0.00 0.00 87 1016.2
20260503032418 3 173 0.0 0.0 0.00 0.00 0.00 87 1016.3
20260503031915 3 181 0.0 0.0 0.00 0.00 0.00 86 1016.3
20260503031412 4 163 0.0 0.0 0.00 0.00 0.00 86 1016.5
20260503030909 4 163 0.0 0.0 0.00 0.00 0.00 85 1016.4
20260503030405 4 163 0.0 0.0 0.00 0.00 0.00 84 1016.5
20260503025902 4 163 0.0 0.0 0.00 0.00 0.00 82 1016.4
20260503025359 4 163 0.0 0.0 0.00 0.00 0.00 83 1016.5
20260503024856 4 163 0.0 0.0 0.00 0.00 0.00 85 1016.6
20260503024353 4 149 0.0 0.0 0.00 0.00 0.00 84 1016.2
20260503023850 4 148 0.0 0.0 0.00 0.00 0.00 84 1016.4
20260503023347 5 166 0.0 0.0 0.00 0.00 0.00 82 1016.4
20260503022843 5 174 0.0 0.0 0.00 0.00 0.00 82 1016.2
20260503022338 5 175 0.0 0.0 0.00 0.00 0.00 82 1016.4
20260503021835 5 160 0.0 0.0 0.00 0.00 0.00 83 1016.1
20260503021331 5 159 0.0 0.0 0.00 0.00 0.00 81 1016.3
20260503020828 5 165 0.0 0.0 0.00 0.00 0.00 79 1016.1
20260503020326 5 172 0.0 0.0 0.00 0.00 0.00 78 1016.1
20260503015822 5 184 0.0 0.0 0.00 0.00 0.00 77 1016.1
20260503015320 5 169 0.0 0.0 0.00 0.00 0.00 78 1016.1
20260503014815 5 149 0.0 0.0 0.00 0.00 0.00 74 1015.9
20260503014313 5 149 0.0 0.0 0.00 0.00 0.00 75 1015.8
20260503013810 5 149 0.0 0.0 0.00 0.00 0.00 73 1015.6
20260503013308 6 149 0.0 0.0 0.00 0.00 0.00 73 1015.8
20260503012804 6 149 0.0 0.0 0.00 0.00 0.00 71 1015.9
20260503012305 6 149 0.0 0.0 0.00 0.00 0.00 67 1015.8
20260503011759 6 148 0.0 0.0 0.00 0.00 0.00 68 1015.9
20260503011255 6 149 0.0 0.0 0.00 0.00 0.00 67 1015.8
20260503010752 6 149 0.0 0.0 0.00 0.00 0.00 64 1015.8
20260503010249 6 150 0.0 0.0 0.00 0.00 0.00 61 1015.6
20260503005746 7 137 0.0 0.0 0.00 0.00 0.00 64 1015.6
20260503005243 7 142 0.0 0.0 0.00 0.00 0.00 59 1015.6
20260503004739 7 142 0.0 0.0 0.00 0.00 0.00 57 1015.7
20260503004238 7 142 0.0 0.0 0.00 0.00 0.00 55 1015.7
20260503003734 8 142 0.0 0.0 0.00 0.00 0.00 55 1015.8
20260503003232 8 142 0.0 0.0 0.00 0.00 0.00 54 1015.6
20260503002728 8 142 0.0 0.0 0.00 0.00 0.00 52 1015.7
20260503002225 8 151 0.0 0.0 0.00 0.00 0.00 50 1015.7
20260503001721 8 160 0.0 0.0 0.00 0.00 0.00 50 1015.4
20260503001218 8 160 0.0 0.0 0.00 0.00 0.00 50 1015.8
20260503000716 8 160 0.0 0.0 0.00 0.00 0.00 49 1015.7
20260503000213 8 173 0.0 0.0 0.00 0.00 0.00 53 1015.5
20260502235710 9 163 0.0 0.0 0.00 0.00 0.00 48 1015.7
20260502235208 9 160 0.0 0.0 0.00 0.00 0.00 48 1015.7
20260502234704 9 158 0.0 0.0 0.00 0.00 0.00 50 1015.7
20260502234201 10 135 0.0 0.0 0.00 0.00 0.00 47 1015.6
20260502233656 10 135 0.0 0.0 0.00 0.00 0.00 44 1015.5
20260502233154 10 130 0.0 0.0 0.00 0.00 0.00 43 1015.5
20260502232649 10 144 0.0 0.0 0.00 0.00 0.00 45 1015.3
20260502232147 10 128 0.0 0.0 0.00 0.00 0.00 45 1015.5
20260502231643 10 121 0.0 0.0 0.00 0.00 0.00 47 1015.6
20260502231141 10 1 0.0 0.0 0.00 0.00 0.00 46 1015.5
20260502230640 10 252 0.0 0.0 0.00 0.00 0.00 48 1015.4
20260502230138 10 119 0.0 0.0 0.00 0.00 0.00 46 1015.6
20260502225633 10 25 0.0 0.0 0.00 0.00 0.00 45 1015.6
20260502225131 10 40 0.0 0.0 0.00 0.00 0.00 45 1015.6
20260502224626 10 145 0.0 0.0 0.00 0.00 0.00 44 1015.5
20260502224123 10 144 0.0 0.0 0.00 0.00 0.00 47 1015.7
20260502223621 10 151 0.0 0.0 0.00 0.00 0.00 49 1015.6
20260502223120 10 144 0.0 0.0 0.00 0.00 0.00 47 1015.5
20260502222617 10 32 0.0 1.6 0.00 0.00 0.00 43 1015.5
20260502222113 11 40 0.0 0.0 0.00 0.00 0.00 42 1015.5
20260502221609 11 120 0.0 0.0 0.00 0.00 0.00 43 1015.4
20260502221106 11 84 0.0 1.6 0.00 0.00 0.00 43 1015.4
20260502220602 11 99 0.0 0.0 0.00 0.00 0.00 42 1015.5
20260502220058 11 133 0.0 0.0 0.00 0.00 0.00 41 1015.5
20260502215555 11 80 0.0 0.0 0.00 0.00 0.00 46 1015.6
20260502215052 11 99 0.0 0.0 0.00 0.00 0.00 42 1015.6
20260502214549 11 42 0.0 0.0 0.00 0.00 0.00 45 1015.4
20260502214047 10 78 0.0 0.0 0.00 0.00 0.00 45 1015.4